Location: Poprad
(49.0500°N, 20.3000°E)
Time: 01:37:21
(UTC+02:00)

JY1SAT - Visible Passes

Search period start: 19 April 2024 00:00
Search period end: 29 April 2024 00:00
Orbit: 541 x 557 km, 97.5° (Epoch: 18 April)

Date Brightness Start Highest point End Pass type
(mag) Time Alt. Az. Time Alt. Az. Time Alt. Az.
19 Apr ? 21:12:12 25° SE 21:14:18 56° ENE 21:18:11 10° N visible
19 Apr ? 22:47:52 13° WSW 22:49:22 15° W 22:51:40 10° NW visible
20 Apr ? 21:07:21 22° SE 21:09:36 49° ENE 21:13:26 10° N visible
20 Apr ? 22:43:02 14° WSW 22:44:36 17° W 22:47:11 10° NW visible
21 Apr ? 21:02:28 20° SE 21:04:52 44° ENE 21:08:39 10° N visible
21 Apr ? 22:38:09 15° WSW 22:39:48 18° W 22:42:36 10° NW visible
22 Apr ? 20:57:34 18° SE 21:00:08 39° ENE 21:03:49 10° N visible
22 Apr ? 22:33:15 16° SW 22:35:00 20° W 22:37:59 10° NW visible
23 Apr ? 20:52:39 16° SE 20:55:21 35° ENE 20:58:58 10° N visible
23 Apr ? 22:28:19 17° SW 22:30:09 23° W 22:33:20 10° NW visible
24 Apr ? 20:47:42 14° SE 20:50:33 32° ENE 20:54:04 10° N visible
24 Apr ? 22:23:22 17° SW 22:25:17 25° W 22:28:36 10° NW visible
25 Apr ? 20:42:42 12° SE 20:45:44 29° ENE 20:49:09 10° N visible
25 Apr ? 22:18:22 18° SW 22:20:24 28° W 22:23:51 10° NW visible
26 Apr ? 20:37:42 10° ESE 20:40:53 26° ENE 20:44:10 10° N visible
26 Apr ? 22:13:22 19° SSW 22:15:29 31° W 22:19:02 10° NNW visible
27 Apr ? 20:32:52 10° ESE 20:36:01 23° ENE 20:39:10 10° NNE visible
27 Apr ? 22:08:19 19° SSW 22:10:33 35° W 22:14:12 10° NNW visible
28 Apr ? 20:28:08 10° ESE 20:31:07 21° ENE 20:34:06 10° NNE visible
28 Apr ? 22:03:15 20° SSW 22:05:35 40° W 22:09:19 10° NNW visible
